EW6133 Weather Reports


time (UTC)temp
F
wind
direction
speed
knots
gust
knots
rain 1hr
in
rain 24hr
in
rain mn
in
humidity
%
barometer
mb
20260507080304 53 115 0.9 4.3 0.00 0.00 0.00 75 1015.6
20260507075803 53 118 0.9 4.3 0.00 0.00 0.00 77 1015.6
20260507075544 53 56 0.9 4.3 0.00 0.00 0.00 77 1015.6
20260507074802 52 92 0.9 3.5 0.00 0.00 0.00 78 1015.6
20260507074303 52 91 0.9 2.6 0.00 0.00 0.00 79 1015.6
20260507073804 51 33 0.9 2.6 0.00 0.00 0.00 79 1015.5
20260507073546 51 50 0.0 2.6 0.00 0.00 0.00 79 1015.5
20260507072803 51 84 0.0 3.5 0.00 0.00 0.00 79 1015.5
20260507072306 51 96 0.0 3.5 0.00 0.00 0.00 79 1015.5
20260507071803 51 69 0.0 2.6 0.00 0.00 0.00 80 1015.5
20260507071543 51 72 0.0 2.6 0.00 0.00 0.00 79 1015.5
20260507070804 51 130 0.0 1.7 0.00 0.00 0.00 80 1015.4
20260507070304 51 130 0.9 4.3 0.00 0.00 0.00 80 1015.3
20260507065804 51 289 0.0 4.3 0.00 0.00 0.00 81 1015.4
20260507065305 51 345 0.0 2.6 0.00 0.00 0.00 81 1015.4
20260507064803 51 69 0.9 2.6 0.00 0.00 0.00 82 1015.4
20260507064330 50 119 0.0 1.7 0.00 0.00 0.00 85 1015.4
20260507064321 50 36 0.0 1.7 0.00 0.00 0.00 84 1015.4
20260507063303 49 115 0.9 2.6 0.00 0.00 0.00 86 1015.3
20260507063044 49 71 0.9 2.6 0.00 0.00 0.00 88 1015.3
20260507062305 48 80 0.0 2.6 0.00 0.00 0.00 90 1015.3
20260507061803 47 97 0.0 1.7 0.00 0.00 0.00 91 1015.2
20260507061545 47 31 0.0 1.7 0.00 0.00 0.00 93 1015.3
20260507060802 46 31 0.0 1.7 0.00 0.00 0.00 93 1015.2
20260507060303 45 31 0.0 0.9 0.00 0.00 0.00 93 1015.2
20260507055802 45 319 0.0 0.0 0.00 0.00 0.00 93 1015.1
20260507055306 45 319 0.0 0.0 0.00 0.00 0.00 93 1015.1
20260507054804 44 319 0.0 0.0 0.00 0.00 0.00 92 1015.1
20260507054304 44 319 0.0 0.0 0.00 0.00 0.00 92 1015.1
20260507053804 44 319 0.0 0.0 0.00 0.00 0.00 92 1015.0
20260507053325 44 319 0.0 0.0 0.00 0.00 0.00 91 1015.0
20260507053316 44 319 0.0 0.0 0.00 0.00 0.00 92 1015.0
20260507052306 44 319 0.0 0.0 0.00 0.00 0.00 91 1015.0
20260507051803 44 319 0.0 0.0 0.00 0.00 0.00 92 1014.9
20260507051302 44 319 0.0 0.0 0.00 0.00 0.00 91 1015.0
20260507051037 44 319 0.0 0.0 0.00 0.00 0.00 91 1014.9
20260507050304 45 319 0.0 0.0 0.00 0.00 0.00 91 1014.8
20260507045802 45 319 0.0 0.0 0.00 0.00 0.00 91 1014.8
20260507045305 45 319 0.0 0.0 0.00 0.00 0.00 91 1014.8
20260507044804 45 319 0.0 0.0 0.00 0.00 0.00 92 1014.8
20260507044302 45 319 0.0 0.0 0.00 0.00 0.00 92 1014.8
20260507043804 45 319 0.0 0.0 0.00 0.00 0.00 92 1014.8
20260507043304 45 315 0.0 0.0 0.00 0.00 0.00 92 1014.8
20260507042803 45 315 0.0 0.0 0.00 0.00 0.00 92 1014.8
20260507042306 45 315 0.0 0.0 0.00 0.00 0.00 91 1014.8
20260507041802 45 315 0.0 0.0 0.00 0.00 0.00 91 1014.8
20260507041302 45 315 0.0 0.0 0.00 0.00 0.00 90 1014.7
20260507040803 45 315 0.0 0.0 0.00 0.00 0.00 90 1014.7
20260507040302 45 315 0.0 0.0 0.00 0.00 0.00 90 1014.7
20260507040043 45 315 0.0 0.0 0.00 0.00 0.00 90 1014.7
20260507035302 46 315 0.0 0.0 0.00 0.00 0.00 90 1014.7
20260507034802 46 315 0.0 0.0 0.00 0.00 0.00 90 1014.6
20260507034305 46 315 0.0 0.0 0.00 0.00 0.00 90 1014.7
20260507033803 46 315 0.0 0.0 0.00 0.00 0.00 90 1014.6
20260507033302 46 315 0.0 0.0 0.00 0.00 0.00 90 1014.6
20260507032803 46 315 0.0 0.0 0.00 0.00 0.00 90 1014.6
20260507032306 46 315 0.0 0.0 0.00 0.00 0.00 90 1014.6
20260507031803 46 315 0.0 0.0 0.00 0.00 0.00 90 1014.5
20260507031302 46 315 0.0 0.0 0.00 0.00 0.00 90 1014.6
20260507031042 46 315 0.0 0.0 0.00 0.00 0.00 90 1014.6
20260507030541 46 315 0.0 0.0 0.00 0.00 0.00 90 1014.6
20260507025805 46 315 0.0 0.0 0.00 0.00 0.00 90 1014.6
20260507025306 46 315 0.0 0.0 0.00 0.00 0.00 90 1014.6
20260507024803 47 315 0.0 0.9 0.00 0.00 0.00 90 1014.5
20260507024540 47 315 0.0 0.9 0.00 0.00 0.00 90 1014.5
20260507023803 47 315 0.0 0.0 0.00 0.00 0.00 90 1014.5
20260507023304 47 315 0.0 0.0 0.00 0.00 0.00 90 1014.6
20260507022804 47 315 0.0 0.0 0.00 0.00 0.00 90 1014.6
20260507022306 47 315 0.0 1.7 0.00 0.00 0.00 90 1014.5
20260507022039 47 315 0.0 1.7 0.00 0.00 0.00 90 1014.5
20260507021304 47 310 0.0 0.9 0.00 0.00 0.00 90 1014.4
20260507021039 47 298 0.0 0.0 0.00 0.00 0.00 90 1014.4
20260507020303 47 298 0.0 0.0 0.00 0.00 0.00 90 1014.3
20260507015803 47 298 0.0 0.0 0.00 0.00 0.00 90 1014.4
20260507015305 47 298 0.0 0.0 0.00 0.00 0.00 90 1014.4
20260507014804 47 298 0.0 0.9 0.00 0.00 0.00 90 1014.4
20260507014303 47 298 0.0 0.9 0.00 0.00 0.00 90 1014.4
20260507013803 47 0 0.0 0.0 0.00 0.00 0.00 90 1014.4
20260507013301 47 0 0.0 0.9 0.00 0.00 0.00 90 1014.4
20260507012802 47 0 0.0 0.9 0.00 0.00 0.00 90 1014.4
20260507012540 47 0 0.0 0.0 0.00 0.00 0.00 90 1014.3
20260507011803 47 0 0.0 0.0 0.00 0.00 0.00 90 1014.3
20260507011303 47 0 0.0 0.0 0.00 0.00 0.00 90 1014.3
20260507010803 47 0 0.0 0.0 0.00 0.00 0.00 90 1014.3
20260507010302 47 0 0.0 0.0 0.00 0.00 0.00 90 1014.3
20260507005803 47 0 0.0 0.0 0.00 0.00 0.00 90 1014.3
20260507005305 47 0 0.0 0.0 0.00 0.00 0.00 90 1014.3
20260507004803 47 0 0.0 0.9 0.00 0.00 0.00 90 1014.3
20260507004303 47 0 0.0 0.9 0.00 0.00 0.00 90 1014.3
20260507004043 47 0 0.0 0.0 0.00 0.00 0.00 90 1014.3
20260507003305 47 0 0.0 0.9 0.00 0.00 0.00 90 1014.3
20260507002802 47 0 0.0 0.9 0.00 0.00 0.00 90 1014.4
20260507002541 47 0 0.0 0.9 0.00 0.00 0.00 90 1014.4
20260507001805 47 0 0.0 0.9 0.00 0.00 0.00 90 1014.4
20260507001545 47 0 0.0 0.9 0.00 0.00 0.00 90 1014.3
20260507000802 47 335 0.0 0.9 0.00 0.00 0.00 90 1014.3
20260507000306 47 335 0.0 0.9 0.00 0.00 0.00 90 1014.3
20260506235804 47 335 0.0 0.0 0.00 0.00 0.00 90 1014.3
20260506235306 47 335 0.0 0.0 0.00 0.00 0.00 90 1014.3
20260506234801 47 335 0.0 0.9 0.00 0.00 0.00 90 1014.3
20260506234302 47 335 0.0 0.9 0.00 0.00 0.00 90 1014.3
20260506233802 47 335 0.0 0.0 0.00 0.00 0.00 90 1014.2
20260506233305 47 335 0.0 0.0 0.00 0.00 0.00 90 1014.3
20260506232803 47 335 0.0 0.0 0.00 0.00 0.00 90 1014.3
20260506232306 47 335 0.0 0.9 0.00 0.00 0.00 89 1014.2
20260506231803 47 335 0.0 0.9 0.00 0.00 0.00 89 1014.3
20260506231302 47 335 0.0 0.0 0.00 0.00 0.00 89 1014.2
20260506231041 47 335 0.0 0.9 0.00 0.00 0.00 89 1014.2
20260506230543 47 335 0.0 0.9 0.00 0.00 0.00 89 1014.2
20260506225804 47 215 0.0 0.9 0.00 0.00 0.00 89 1014.1
20260506225305 47 215 0.0 1.7 0.00 0.00 0.00 89 1014.1
20260506225040 47 215 0.0 1.7 0.00 0.00 0.00 89 1014.1
20260506224604 47 227 0.0 0.0 0.00 0.00 0.00 89 1014.2
20260506224318 47 227 0.0 0.0 0.00 0.00 0.00 89 1014.2
20260506223301 47 227 0.0 0.0 0.00 0.00 0.00 89 1014.2
20260506222803 47 227 0.0 0.9 0.00 0.00 0.00 89 1014.2
20260506222305 47 227 0.0 0.9 0.00 0.00 0.00 88 1014.2
20260506221803 47 227 0.0 0.9 0.00 0.00 0.00 88 1014.1
20260506221304 47 227 0.0 0.0 0.00 0.00 0.00 88 1014.1
20260506221040 47 227 0.0 0.9 0.00 0.00 0.00 88 1014.1
20260506220303 47 227 0.0 0.9 0.00 0.00 0.00 88 1014.1
20260506215803 48 227 0.0 0.0 0.00 0.00 0.00 88 1014.1
20260506215542 48 227 0.0 0.9 0.00 0.00 0.00 88 1014.1
20260506214802 48 227 0.0 0.9 0.00 0.00 0.00 88 1014.0
20260506214301 48 227 0.0 0.9 0.00 0.00 0.00 88 1014.0
20260506213803 48 227 0.0 0.9 0.00 0.00 0.00 87 1014.0
20260506213301 48 227 0.0 0.9 0.00 0.00 0.00 87 1014.0
20260506212805 48 227 0.0 0.9 0.00 0.00 0.00 87 1014.1
20260506212538 48 227 0.0 0.9 0.00 0.00 0.00 87 1014.1
20260506211803 48 227 0.0 0.9 0.00 0.00 0.00 87 1014.1
20260506211541 48 221 0.0 0.9 0.00 0.00 0.00 87 1014.0
20260506210803 48 221 0.0 0.9 0.00 0.00 0.00 86 1014.0
20260506210303 48 221 0.0 0.9 0.00 0.00 0.00 86 1014.0
20260506205804 48 221 0.0 1.7 0.00 0.00 0.00 86 1013.9
20260506205540 48 221 0.0 1.7 0.00 0.00 0.00 86 1013.9
20260506204803 48 212 0.0 0.9 0.00 0.00 0.00 85 1013.9
20260506204543 48 212 0.0 0.9 0.00 0.00 0.00 85 1013.9
20260506203804 48 212 0.0 0.9 0.00 0.00 0.00 85 1013.9
20260506203301 48 212 0.0 0.9 0.00 0.00 0.00 84 1013.9
20260506202803 49 212 0.0 2.6 0.00 0.00 0.00 84 1013.9
20260506202306 49 355 0.0 2.6 0.00 0.00 0.00 84 1013.8
20260506201803 49 225 0.0 1.7 0.00 0.00 0.00 84 1013.8
20260506201303 49 225 0.0 0.9 0.00 0.00 0.00 83 1013.7
20260506200804 49 225 0.0 1.7 0.00 0.00 0.00 83 1013.7
20260506200302 49 225 0.0 1.7 0.00 0.00 0.00 82 1013.7
20260506195804 49 37 0.0 1.7 0.00 0.00 0.00 82 1013.7
20260506195306 49 148 0.0 0.9 0.00 0.00 0.00 82 1013.6
20260506194804 49 148 0.0 2.6 0.00 0.00 0.00 81 1013.6
20260506194302 50 71 0.0 2.6 0.00 0.00 0.00 81 1013.5
20260506193804 50 242 0.9 2.6 0.00 0.00 0.00 80 1013.5
20260506193303 50 11 0.0 2.6 0.00 0.00 0.00 80 1013.4
20260506192802 51 38 0.0 1.7 0.00 0.00 0.00 79 1013.4
20260506192305 51 227 0.0 0.9 0.00 0.00 0.00 78 1013.3
20260506191803 51 223 0.0 0.9 0.00 0.00 0.00 77 1013.3
20260506191303 51 209 0.0 0.9 0.00 0.00 0.00 76 1013.2
20260506190802 51 199 0.0 0.9 0.00 0.00 0.00 75 1013.2
20260506190302 51 199 0.0 1.7 0.00 0.00 0.00 74 1013.1
20260506185803 51 200 0.0 1.7 0.00 0.00 0.00 73 1013.0
20260506185306 52 198 0.0 2.6 0.00 0.00 0.00 72 1013.0
20260506184803 52 235 0.9 2.6 0.00 0.00 0.00 72 1012.9
20260506184543 52 348 0.0 2.6 0.00 0.00 0.00 72 1012.9
20260506184040 52 205 0.0 1.7 0.00 0.00 0.00 72 1012.9
20260506183305 52 322 0.0 1.7 0.00 0.00 0.00 72 1012.8
20260506182806 53 242 0.0 1.7 0.00 0.00 0.00 72 1012.8
20260506182306 53 120 0.0 1.7 0.00 0.00 0.00 72 1012.7
20260506181804 53 0 0.0 1.7 0.00 0.00 0.00 71 1012.7
20260506181546 53 43 0.0 1.7 0.00 0.00 0.00 71 1012.7
20260506181043 53 295 0.0 1.7 0.00 0.00 0.00 71 1012.7
20260506180300 53 242 0.0 1.7 0.00 0.00 0.00 70 1012.6
20260506180040 53 73 0.0 1.7 0.00 0.00 0.00 70 1012.6
20260506175259 53 45 0.0 1.7 0.00 0.00 0.00 69 1012.4
20260506174759 53 282 0.0 1.7 0.00 0.00 0.00 68 1012.4
20260506174540 54 283 0.0 1.7 0.00 0.00 0.00 68 1012.4
20260506173759 54 26 0.0 1.7 0.00 0.00 0.00 68 1012.3
20260506173258 54 259 0.0 2.6 0.00 0.00 0.00 68 1012.3
20260506173037 54 111 0.0 2.6 0.00 0.00 0.00 68 1012.3
20260506172259 54 225 0.0 1.7 0.00 0.00 0.00 68 1012.3
20260506171759 54 5 0.0 3.5 0.00 0.00 0.00 68 1012.3
20260506171259 54 294 0.0 3.5 0.00 0.00 0.00 67 1012.3
20260506170757 54 103 0.0 1.7 0.00 0.00 0.00 67 1012.3
20260506170259 54 213 0.9 2.6 0.00 0.00 0.00 66 1012.2
20260506165758 54 328 0.9 2.6 0.00 0.00 0.00 66 1012.2
20260506165259 54 264 0.0 1.7 0.00 0.00 0.00 66 1012.2
20260506164758 54 355 0.0 1.7 0.00 0.00 0.00 66 1012.2
20260506164256 54 9 0.9 1.7 0.00 0.00 0.00 65 1012.2
20260506163756 55 264 0.0 2.6 0.00 0.00 0.00 64 1012.2
20260506163250 55 225 0.0 2.6 0.00 0.00 0.00 63 1012.2
20260506163024 55 305 0.0 1.7 0.00 0.00 0.00 61 1012.2
20260506162238 55 311 0.0 2.6 0.00 0.00 0.00 61 1012.1
20260506161738 55 242 0.0 2.6 0.00 0.00 0.00 60 1012.2
20260506161233 56 56 0.0 1.7 0.00 0.00 0.00 60 1012.2
20260506160732 56 62 0.0 0.9 0.00 0.00 0.00 60 1012.2
20260506160510 56 62 0.0 1.7 0.00 0.00 0.00 61 1012.2
20260506160012 56 61 0.0 2.6 0.00 0.00 0.00 62 1012.2
20260506155256 55 106 0.0 1.7 0.00 0.00 0.00 61 1012.2
20260506155247 55 65 0.0 2.6 0.00 0.00 0.00 62 1012.2
20260506154234 55 106 0.9 1.7 0.00 0.00 0.00 60 1012.2
20260506154009 55 267 0.9 1.7 0.00 0.00 0.00 60 1012.3
20260506153231 55 318 0.0 1.7 0.00 0.00 0.00 60 1012.2
20260506152731 55 40 0.0 1.7 0.00 0.00 0.00 61 1012.2
20260506152233 56 40 0.9 2.6 0.00 0.00 0.00 61 1012.2
20260506151732 56 296 0.0 2.6 0.00 0.00 0.00 62 1012.2
20260506151231 56 309 0.0 2.6 0.00 0.00 0.00 62 1012.2
20260506150733 56 17 0.0 2.6 0.00 0.00 0.00 63 1012.2
20260506150232 56 232 0.0 1.7 0.00 0.00 0.00 61 1012.2
20260506145733 56 232 0.0 1.7 0.00 0.00 0.00 61 1012.2
20260506145231 56 234 0.0 1.7 0.00 0.00 0.00 62 1012.2
20260506144733 56 234 0.0 1.7 0.00 0.00 0.00 63 1012.2
20260506144510 56 236 0.0 1.7 0.00 0.00 0.00 63 1012.2
20260506143732 56 240 0.0 1.7 0.00 0.00 0.00 64 1012.3
20260506143231 56 232 0.0 2.6 0.00 0.00 0.00 64 1012.2
20260506143013 56 330 0.0 2.6 0.00 0.00 0.00 63 1012.2
20260506142253 56 194 0.9 2.6 0.00 0.00 0.00 63 1012.2
20260506142246 56 202 0.0 2.6 0.00 0.00 0.00 63 1012.2
20260506141511 56 182 0.9 2.6 0.00 0.00 0.00 62 1012.3
20260506140732 56 24 0.9 3.5 0.00 0.00 0.00 63 1012.3
20260506140232 56 106 0.9 3.5 0.00 0.00 0.00 64 1012.3
20260506135733 55 90 0.9 3.5 0.00 0.00 0.00 66 1012.3
20260506135235 55 355 0.9 3.5 0.00 0.00 0.00 65 1012.3
20260506134731 55 169 0.9 3.5 0.00 0.00 0.00 66 1012.4
20260506134232 55 300 0.9 3.5 0.00 0.00 0.00 66 1012.3
20260506133731 55 280 0.9 2.6 0.00 0.00 0.00 67 1012.5
20260506133231 54 215 0.9 2.6 0.00 0.00 0.00 67 1012.4
20260506132731 54 31 0.9 2.6 0.00 0.00 0.00 68 1012.4
20260506132232 54 213 0.9 4.3 0.00 0.00 0.00 68 1012.4
20260506131732 54 5 0.9 4.3 0.00 0.00 0.00 70 1012.4
20260506131231 53 313 0.9 2.6 0.00 0.00 0.00 70 1012.5
20260506130733 53 276 0.9 2.6 0.00 0.00 0.00 70 1012.4
20260506130234 54 266 0.9 1.7 0.00 0.00 0.00 70 1012.4
20260506130012 54 263 0.9 1.7 0.00 0.00 0.00 70 1012.5
20260506125231 54 93 0.9 2.6 0.00 0.00 0.00 71 1012.5
20260506124734 54 49 0.9 2.6 0.00 0.00 0.00 71 1012.5
20260506124231 54 211 0.9 2.6 0.00 0.00 0.00 70 1012.5
20260506123732 54 19 0.9 2.6 0.00 0.00 0.00 70 1012.5
20260506123506 54 220 0.9 2.6 0.00 0.00 0.00 70 1012.5
20260506122731 54 294 0.0 3.5 0.00 0.00 0.00 72 1012.5
20260506122233 53 187 0.9 7.8 0.00 0.00 0.00 71 1012.5
20260506121733 53 269 0.9 7.8 0.00 0.00 0.00 71 1012.5
20260506121231 53 262 0.9 2.6 0.00 0.00 0.00 72 1012.5
20260506120732 53 249 0.9 2.6 0.00 0.00 0.00 73 1012.6
20260506120233 53 215 0.9 2.6 0.00 0.00 0.00 74 1012.5
20260506115729 53 271 0.9 2.6 0.00 0.00 0.00 73 1012.6
20260506115230 53 214 0.9 2.6 0.00 0.00 0.00 73 1012.6
20260506114730 53 245 0.9 2.6 0.00 0.00 0.00 74 1012.6
20260506114230 52 245 0.9 3.5 0.00 0.00 0.00 74 1012.6
20260506113727 52 271 0.9 3.5 0.00 0.00 0.00 75 1012.6
20260506113229 52 327 0.9 3.5 0.00 0.00 0.00 75 1012.5
20260506112726 52 235 0.9 4.3 0.00 0.00 0.00 74 1012.6
20260506112225 53 233 0.9 4.3 0.00 0.00 0.00 73 1012.6
20260506111727 53 287 0.9 8.7 0.00 0.00 0.00 72 1012.6
20260506111225 53 12 0.9 8.7 0.00 0.00 0.00 72 1012.6
20260506110726 52 309 0.9 2.6 0.00 0.00 0.00 73 1012.6
20260506110224 52 30 0.9 4.3 0.00 0.00 0.00 73 1012.6
20260506105725 52 347 0.9 4.3 0.00 0.00 0.00 72 1012.6
20260506105225 52 241 0.9 3.5 0.00 0.00 0.00 73 1012.7
20260506105005 53 213 0.9 3.5 0.00 0.00 0.00 73 1012.7
20260506104225 53 355 0.9 3.5 0.00 0.00 0.00 73 1012.6
20260506104004 52 274 0.9 3.5 0.00 0.00 0.00 73 1012.7
20260506103224 52 258 1.7 3.5 0.00 0.00 0.00 72 1012.7
20260506102723 53 31 0.9 4.3 0.00 0.00 0.00 73 1012.7
20260506102224 53 62 0.9 4.3 0.00 0.00 0.00 73 1012.6
20260506101723 52 241 1.7 3.5 0.00 0.00 0.00 73 1012.5
20260506101223 52 247 0.9 3.5 0.00 0.00 0.00 74 1012.5
20260506100721 52 56 0.9 3.5 0.00 0.00 0.00 74 1012.5
20260506100222 52 266 0.9 4.3 0.00 0.00 0.00 73 1012.6
20260506095721 52 236 1.7 4.3 0.00 0.00 0.00 72 1012.6
20260506095222 52 222 0.9 4.3 0.00 0.00 0.00 73 1012.6
20260506094720 52 5 0.9 4.3 0.00 0.00 0.00 73 1012.5
20260506094217 52 71 1.7 4.3 0.00 0.00 0.00 72 1012.5
20260506093716 52 259 0.9 3.5 0.00 0.00 0.00 72 1012.5
20260506093456 52 272 0.9 3.5 0.00 0.00 0.00 73 1012.5
20260506092714 52 211 0.9 3.5 0.00 0.00 0.00 72 1012.5
20260506092214 51 229 0.9 3.5 0.00 0.00 0.00 74 1012.4
20260506091714 51 42 0.9 3.5 0.00 0.00 0.00 73 1012.5
20260506091216 51 5 0.9 2.6 0.00 0.00 0.00 73 1012.5
20260506090714 51 5 0.9 2.6 0.00 0.00 0.00 72 1012.4
20260506090214 51 266 0.9 3.5 0.00 0.00 0.00 72 1012.4
20260506085713 52 244 0.9 3.5 0.00 0.00 0.00 72 1012.4
20260506085217 52 219 0.9 3.5 0.00 0.00 0.00 71 1012.4
20260506084713 52 304 0.9 6.1 0.00 0.00 0.00 71 1012.4
20260506084215 52 248 0.9 6.1 0.00 0.00 0.00 72 1012.3
20260506083713 51 248 0.9 3.5 0.00 0.00 0.00 72 1012.4
20260506083213 51 267 0.9 4.3 0.00 0.00 0.00 74 1012.4
20260506082713 51 186 0.9 4.3 0.00 0.00 0.00 74 1012.4
20260506082212 51 279 0.9 2.6 0.00 0.00 0.00 74 1012.5
20260506081713 50 159 0.9 3.5 0.00 0.00 0.00 75 1012.4
20260506081215 50 198 0.9 3.5 0.00 0.00 0.00 75 1012.4
20260506080713 49 214 0.9 4.3 0.00 0.00 0.00 78 1012.4